Houston Hull, TX

8:12 AM CST on December 13, 2019 (GMT -0600)
Sugar Land Municipal-Hull

Weather History for KSGR - November, 2019

Change the Weather History Date:

Tuesday, November 12, 2019

  Actual Average Record
Temperature  
Mean Temperature 40 °F -  
Max Temperature 46 °F 72 °F 89 °F (1988)
Min Temperature 33 °F 50 °F 32 °F (2000)
Degree Days  
Heating Degree Days 26    
Moisture  
Dew Point 26 °F    
Average Humidity 63    
Maximum Humidity 82    
Minimum Humidity 42    
Precipitation  
Precipitation 0.00 in - - ()
Sea Level Pressure  
Sea Level Pressure 30.41 in    
Wind  
Wind Speed 19 mph (North)    
Max Wind Speed 26 mph    
Max Gust Speed 33 mph    
Visibility 10 miles    
Events      
Averages and records for this station are not official NWS values.
T = Trace of Precipitation, MM = Missing Value Source: NWS Daily Summary

Daily Weather History Graph

Daily Weather History Graph

Search for Another Location

Airport or City:

Astronomy

Nov. 12, 2019 Rise Set
Actual Time 6:44 AM CST 5:28 PM CST
Civil Twilight 6:19 AM CST 5:53 PM CST
Nautical Twilight 5:50 AM CST 6:22 PM CST
Astronomical Twilight 5:22 AM CST 6:50 PM CST
Moon 5:54 PM CST (11/12) 6:40 AM CST (11/12)
Length of Visible Light 11h 34m
Length of Day
10h 44m
Full, 100% of the Moon is Illuminated
Nov 12
Full
Nov 19
Last Quarter
Nov 26
New
Dec 4
First Quarter
Dec 11
Full

Hourly Weather History & Observations

Time (CST) Temp. Windchill Dew Point Humidity Pressure Visibility Wind Dir Wind Speed Gust Speed Precip Events Conditions
12:19 AM 39.0 °F 28.8 °F 34.0 °F 82% 30.30 in 10.0 mi North 21.9 mph 29.9 mph N/A   Overcast
12:53 AM 39.0 °F 29.3 °F 34.0 °F 82% 30.31 in 10.0 mi North 19.6 mph 33.4 mph N/A   Overcast
1:34 AM 37.0 °F 25.4 °F 32.0 °F 82% 30.32 in 10.0 mi North 25.3 mph 33.4 mph N/A   Overcast
1:53 AM 37.0 °F 25.1 °F 32.0 °F 82% 30.34 in 10.0 mi North 26.5 mph 32.2 mph N/A   Overcast
2:53 AM 37.0 °F 26.4 °F 32.0 °F 82% 30.37 in 10.0 mi North 20.7 mph 29.9 mph 0.00 in   Overcast
3:53 AM 37.0 °F 26.7 °F 30.9 °F 79% 30.39 in 10.0 mi North 19.6 mph 26.5 mph N/A   Overcast
4:53 AM 37.0 °F 25.9 °F 28.9 °F 73% 30.41 in 10.0 mi North 23.0 mph 29.9 mph N/A   Overcast
5:53 AM 36.0 °F 24.7 °F 28.0 °F 73% 30.42 in 10.0 mi North 21.9 mph 28.8 mph 0.00 in   Overcast
6:53 AM 36.0 °F 24.2 °F 27.0 °F 70% 30.44 in 10.0 mi North 24.2 mph 32.2 mph N/A   Scattered Clouds
7:53 AM 36.0 °F 25.6 °F 27.0 °F 70% 30.47 in 10.0 mi NNW 18.4 mph 25.3 mph N/A   Partly Cloudy
8:53 AM 36.0 °F 26.0 °F 25.0 °F 64% 30.49 in 10.0 mi North 17.3 mph 28.8 mph N/A   Mostly Cloudy
9:53 AM 37.0 °F 26.4 °F 25.0 °F 62% 30.51 in 10.0 mi North 20.7 mph - N/A   Clear
10:53 AM 39.0 °F 29.3 °F 24.1 °F 55% 30.49 in 10.0 mi North 19.6 mph 26.5 mph N/A   Clear
11:37 AM 39.9 °F 30.8 °F 24.1 °F 53% 30.47 in 10.0 mi North 18.4 mph - N/A   Clear
11:53 AM 41.0 °F 32.2 °F 24.1 °F 51% 30.47 in 10.0 mi North 18.4 mph 25.3 mph N/A   Clear
12:53 PM 44.1 °F 36.8 °F 24.1 °F 45% 30.45 in 10.0 mi NNW 16.1 mph 24.2 mph N/A   Clear
1:53 PM 46.0 °F 39.6 °F 24.1 °F 42% 30.43 in 10.0 mi NNW 15.0 mph 21.9 mph N/A   Clear
2:53 PM 45.0 °F 37.9 °F 23.0 °F 42% 30.41 in 10.0 mi NNW 16.1 mph 23.0 mph N/A   Clear
3:53 PM 43.0 °F 36.0 °F 21.9 °F 43% 30.42 in 10.0 mi North 13.8 mph - N/A   Clear
4:53 PM 42.1 °F 36.1 °F 23.0 °F 47% 30.42 in 10.0 mi NNW 10.4 mph - N/A   Clear
5:53 PM 39.9 °F 33.4 °F 23.0 °F 51% 30.41 in 10.0 mi North 10.4 mph - N/A   Clear
6:53 PM 37.9 °F 32.1 °F 25.0 °F 60% 30.40 in 10.0 mi North 8.1 mph - N/A   Clear
7:53 PM 39.0 °F 32.8 °F 23.0 °F 53% 30.41 in 10.0 mi North 9.2 mph - N/A   Clear
8:53 PM 37.0 °F 30.4 °F 24.1 °F 59% 30.41 in 10.0 mi North 9.2 mph - N/A   Clear
9:53 PM 35.1 °F 29.3 °F 24.1 °F 64% 30.40 in 10.0 mi North 6.9 mph - N/A   Clear
10:53 PM 33.1 °F 30.0 °F 25.0 °F 72% 30.41 in 10.0 mi North 3.5 mph - N/A   Clear
11:53 PM 35.1 °F 27.9 °F 23.0 °F 61% 30.42 in 10.0 mi NE 9.2 mph - N/A   Clear